Regional Weather Roundup
Issued by NWS

Home | Current Version | Previous Version | Text Only | Print | Product List | Glossary Off
Versions: 1 2 3 4 5 6 7 8 9 10 11 12 13 14 15 16 17 18 19 20 21 22 23 24 25 26 27 28 29 30 31 32 33 34 35 36 37 38 39 40 41 42 43 44 45 46 47 48 49 50

000
ASUS45 KBOU 301507
RWRCO

WEATHER ROUNDUP FOR COLORADO
NATIONAL WEATHER SERVICE DENVER/BOULDER CO
800 AM MST FRI JAN 30 2015

NOTE: "FAIR" INDICATES FEW OR NO CLOUDS BELOW 12000 FEET WITH NO
SIGNIFICANT WEATHER AND/OR OBSTRUCTIONS TO VISIBILITY.

COZ001>005-013-030-031-301600-
...NORTHWEST COLORADO...

CITY           SKY/WX    TMP DP  RH WIND       PRES   REMARKS
CRAIG          CLOUDY    33  30  88 NE3       30.20F
HAYDEN         CLOUDY    32  27  80 SE9       30.21F WCI  24
MEEKER         FOG       30  29  96 CALM      30.17F VSB<1/4
MOUNT WERNER   NOT AVBL
STEAMBOAT SPGS CLOUDY    28  24  86 CALM      30.22F
WALDEN         MOCLDY    23  19  86 CALM      30.23S
$$

COZ006>008-011-301600-
...WEST CENTRAL VALLEYS...

CITY           SKY/WX    TMP DP  RH WIND       PRES   REMARKS
GRAND JUNCTION CLOUDY    37  32  82 CALM      30.15F
MONTROSE       CLOUDY    38  33  82 CALM      30.18F
EAGLE          CLOUDY    30  28  93 CALM      30.25F
RIFLE          CLOUDY    33  28  81 CALM      30.18F
DELTA          CLOUDY    39  32  75 CALM      30.17F
NUCLA          DRZL/FOG  37  36  93 CALM      30.18F VSB 1/2
$$

COZ017>023-064>068-301600-
...SOUTHWEST COLORADO...

CITY           SKY/WX    TMP DP  RH WIND       PRES   REMARKS
DURANGO        LGT SNOW  30  30 100 E5        30.22F FOG     WCI  25
CORTEZ         MIX PCPN  36  33  89 W6        30.16F
PAGOSA SPRINGS LGT SNOW  31  31 100 CALM      30.25F
TELLURIDE      CLOUDY    31  31 100 CALM      30.18F
WOLF CREEK PAS NOT AVBL
$$

COZ009-010-012-014-032>034-037-058>063-301600-
...CENTRAL COLORADO...

CITY           SKY/WX    TMP DP  RH WIND       PRES   REMARKS
ASPEN          CLOUDY    28  22  78 S5        30.19F WCI  23
BUENA VISTA    CLOUDY    29  22  75 NW5       30.26S WCI  24
COPPER MTN     CLOUDY    27  19  74 CALM      30.26F
BERTHOUD PASS  CLOUDY    19  14  79 NE3       30.30S
COTTONWOOD PAS CLOUDY    28  23  80 CALM      30.26S
GUNNISON       CLOUDY    27  21  80 CALM      30.26F
KREMMLING      CLOUDY    23  19  86 CALM      30.27S
LEADVILLE      CLOUDY    18  15  88 CALM      30.24F
MONARCH PASS   FOG       23  21  93 MISG      30.37F VSB<1/4
SALIDA         MOCLDY    32  26  78 N5        30.33S WCI  27
SUNLIGHT       CLOUDY    28  27  93 CALM        N/A
WILKERSON PASS CLOUDY    23  21  93 W3        30.29F
$$

COZ069>075-301600-
...SAN LUIS VALLEY/SANGRE DE CRISTO MOUNTAINS...

CITY           SKY/WX    TMP DP  RH WIND       PRES   REMARKS
ALAMOSA        LGT SNOW  28  26  92 SE7       30.26F FOG     WCI  21
LA VETA PASS   LGT SNOW  23  21  93 S8        30.25S WCI  14
SAGUACHE       LGT SNOW  30  28  93 SE7       30.29S VSB 1   WCI  23
$$

COZ035-036-038>040-301600-
...NORTHERN COLORADO FRONT RANGE...

CITY           SKY/WX    TMP DP  RH WIND       PRES   REMARKS
DENVER INTL AP CLOUDY    32  25  75 SW6       30.19F WCI  26
DMNS CITY PARK   N/A     35  23  63 SE2       30.19F
AURORA         MOCLDY    32  25  74 SW2       30.20F
FRONT RANGE AP NOT AVBL
ERIE MUNI ARPT CLOUDY    31  27  86 CALM      30.20S
BOULDER MUN AP CLOUDY    32  27  80 CALM      30.20S
CENTENNIAL     CLOUDY    33  26  75 CALM      30.19F
BROOMFIELD     MOCLDY    32  25  74 CALM      30.20S
FORT COLLINS   MOCLDY    30  23  74 N3        30.21S
LONGMONT       MOCLDY    32  28  84 CALM      30.22S
$$

COZ041-046-047-076>085-087-088-301600-
...PIKES PEAK/PALMER DIVIDE AND SOUTHERN FOOTHILLS...

CITY           SKY/WX    TMP DP  RH WIND       PRES   REMARKS
COLO. SPRINGS  CLOUDY    31  25  78 NE3       30.23F
A. F. ACADEMY  CLOUDY    28  23  80 NE2       30.22S
ELLICOTT       CLOUDY   N/A N/A N/A CALM      30.22F
FALCON         CLOUDY    29  26  89 CALM      30.22F
FORT CARSON    MOCLDY    29  24  82 N5        30.22F WCI  24
LIMON          CLOUDY    31  25  78 SE10      30.22F WCI  22
MONUMENT HILL  CLOUDY    32  23  69 S10       30.18F WCI  24
TRINIDAD       CLOUDY    38  26  62 NE6       30.25F
$$

COZ042>045-048>051-090-091-301600-
...NORTHEAST COLORADO...

CITY           SKY/WX    TMP DP  RH WIND       PRES   REMARKS
GREELEY ARPT   CLOUDY    27  19  74 NW3       30.19F
AKRON          CLOUDY    31  25  78 S7        30.20F WCI  24
BURLINGTON     CLOUDY    37  26  64 S18       30.25F
WRAY           CLOUDY    34  27  77 E7        30.26F WCI  28
STERLING       CLOUDY    32  27  80 S5        30.21S WCI  27
HOLYOKE        NOT AVBL
FORT MORGAN    CLOUDY    30  24  77 NE3       30.20F
$$

COZ086-089-092>099-301600-
...SOUTHEAST COLORADO...

CITY           SKY/WX    TMP DP  RH WIND       PRES   REMARKS
PUEBLO         MOCLDY    33  26  75 CALM      30.24F
LA JUNTA       CLOUDY    44  31  60 S21G31    30.28S
LAMAR          CLOUDY    41  28  60 S9        30.30S
SPRINGFIELD      N/A     38  29  70 S12       30.32F
$$



USA.gov is the U.S. government's official web portal to all federal, state and local government web resources and services.